Location: Florence
(33.9745°N, 118.2481°W)
Time: 20:30:02
(UTC+00:00)

PSLV R/B - Pass Details

Date: 23 March 2023
Orbit: 586 x 620 km, 98.0° (Epoch: 06 June)

Event Time Altitude Azimuth Distance (km) Brightness Sun altitude
Rises 13:14:02 0° 5° (N) 2,856 7.1 -8.8°
Reaches altitude 10° 13:16:15 10° 360° (N) 1,955 6.2 -8.4°
Maximum altitude 13:20:20 48° 286° (WNW) 801 3.8 -7.5°
Drops below altitude 10° 13:24:26 10° 212° (SSW) 1,963 5.8 -6.7°
Sets 13:26:40 0° 206° (SSW) 2,869 6.7 -6.2°
